Location: Burzi?i
(45.0869°N, 16.0577°E)
Time: 04:04:08
(UTC+00:00)

CZ-2D R/B - Pass Details

Date: 29 October 2020
Orbit: 522 x 537 km, 97.4° (Epoch: 01 December)

Event Time Altitude Azimuth Distance (km) Brightness Sun altitude
Rises 17:19:42 0° 170° (S) 2,648 6.7 -16.8°
Reaches altitude 10° 17:21:48 10° 172° (S) 1,762 5.8 -17.1°
Maximum altitude 17:25:35 76° 258° (WSW) 546 3.3 -17.8°
Drops below altitude 10° 17:29:25 10° 345° (NNW) 1,771 6.1 -18.5°
Sets 17:31:32 0° 347° (NNW) 2,663 7.0 -18.8°
